Orbital Elements at Epoch 2459000.5 (2020-May-31.0) TDB
Reference: JPL 19 (heliocentric ecliptic J2000)
Element | Value | Uncertainty (1-sigma) | Units |
e | .1392913273694212 | 4.6951e-08 | |
a | 2.355121361312585 | 1.1219e-08 | au |
q | 2.027073380779277 | 1.1074e-07 | au |
i | 5.496944395608951 | 4.4739e-06 | deg |
node | 248.1624454647784 | 5.2569e-05 | deg |
peri | 111.9569311327074 | 5.4749e-05 | deg |
M | 7.79443204728793 | 1.5784e-05 | deg |
tp | 2458971.917491674901 (2020-May-02.41749167) | 5.781e-05 | TDB |
period | 1320.135057257426 3.61 | 9.4327e-06 2.583e-08 | d yr |
n | .2726993711900191 | 1.9485e-09 | deg/d |
Q | 2.683169341845893 | 1.2781e-08 | au |
|
| | Orbit Determination Parameters
Additional Information
|